sat.trackr.live / text

‹ back to catalog

STARLINK-35466

NORAD 66457 · 2025-262B

PAYLOAD ACTIVE UNKNOWN

§ Identity

Operator
Country
US
Launch date
2025-11-15
Launch site
AFETR
Launch vehicle
Mass (kg)
RCS (m²)

Purposes: comms

External: N2YO · Heavens-Above · Gunter

§ Orbital elements

Epoch: 2026-09-20T08:12:50.608224Z

Period
94.27 min
Inclination
43.0038°
Eccentricity
0.0000538
Mean motion
15.27582753 rev/d
Perigee alt
482.7 km
Apogee alt
483.4 km
Semi-major
6,861.2 km
B*
4.2765e-4
RAAN
277.0822°
Arg perigee
271.5083°
Mean anomaly
88.5707°
Rev number
4,867

§ Raw data

STARLINK-354661 66457U 25262B   26263.34225241  .00011525  00000+0  42765-3 0  99972 66457  43.0038 277.0822 0000538 271.5083  88.5707 15.27582753 48673

JSON: /api/v1/satellites/66457 · /tle

For live sub-satellite position, see the globe view (requires WebGL).

§ Visibility from observer

Set your observer location to see the next 7 days of passes ≥ 10°. The values pass through the URL so the page stays shareable.

No JS? Fill the form by hand. The geolocation button needs JavaScript.